This demonstration page uses our WeatherBlox Daily Observations layout. Learn more.

Left ArrowRight Arrow

36.17497, -115.13722

Hourly Observations for October 14, 2016

Temp ( °F °C ) Dew Point ( °F °C ) Humidity (%) Winds ( mph kmh ) Pressure ( in mb ) Visibility ( mi km ) Precip ( " mm )
12:53 am 00:53 Clear 73 22.8 25 -3.9 17 17 ENE 3 6 29.92 1013 10 16.0934 0 0
1:53 am 01:53 Clear 70 21.1 24 -4.4 18 18 ESE 7 11 29.92 1013 10 16.0934 0 0
2:53 am 02:53 Clear 71 21.7 24 -4.4 17 17 SE 6 9 29.91 1013 10 16.0934 0 0
3:53 am 03:53 Clear 74 23.3 23 -5 15 15 ESE 10 17 29.89 1012 10 16.0934 0 0
4:53 am 04:53 Clear 69 20.6 23 -5 17 17 E 9 15 29.9 1013 10 16.0934 0 0
5:53 am 05:53 Clear 69 20.6 27 -2.8 21 21 NE 6 9 29.91 1013 10 16.0934 0 0
6:53 am 06:53 Sunny 69 20.6 27 -2.8 21 21 NE 7 11 29.91 1013 10 16.0934 0 0
7:53 am 07:53 Sunny 71 21.7 27 -2.8 19 19 S 5 7 29.91 1013 10 16.0934 0 0
8:53 am 08:53 Sunny 74 23.3 28 -2.2 18 18 NE 3 6 29.92 1013 10 16.0934 0 0
9:53 am 09:53 Sunny 76 24.4 28 -2.2 17 17 ESE 3 6 29.93 1013 10 16.0934 0 0
10:53 am 10:53 Sunny 83 28.3 27 -2.8 13 13 E 7 11 29.91 1013 10 16.0934 0 0
11:53 am 11:53 Sunny 86 30 23 -5 10 10 W 9 15 29.88 1012 10 16.0934 0 0
12:53 pm 12:53 Sunny 89 31.7 23 -5 9 9 WSW 15 24 29.85 1011 10 16.0934 0 0
1:53 pm 13:53 Sunny 89 31.7 24 -4.4 9 9 WSW 20 31 29.82 1010 10 16.0934 0 0
2:53 pm 14:53 Sunny 90 32.2 24 -4.4 9 9 SW 22 35 29.79 1009 10 16.0934 0 0
3:53 pm 15:53 Sunny 91 32.8 23 -5 8 8 SW 26 43 29.76 1008 10 16.0934 0 0
4:53 pm 16:53 Sunny 91 32.8 23 -5 8 8 SW 24 39 29.77 1008 10 16.0934 0 0
5:53 pm 17:53 Sunny 87 30.6 23 -5 9 9 WSW 16 26 29.78 1008 10 16.0934 0 0
6:53 pm 18:53 Clear 86 30 24 -4.4 10 10 WSW 24 39 29.77 1008 10 16.0934 0 0
7:53 pm 19:53 Clear 85 29.4 25 -3.9 11 11 SW 17 28 29.79 1009 10 16.0934 0 0
8:53 pm 20:53 Clear 84 28.9 25 -3.9 11 11 SW 24 39 29.8 1009 10 16.0934 0 0
9:53 pm 21:53 Clear 84 28.9 23 -5 10 10 SSW 22 35 29.8 1009 10 16.0934 0 0
10:53 pm 22:53 Clear 82 27.8 23 -5 11 11 SSW 25 41 29.78 1008 10 16.0934 0 0
11:53 pm 23:53 Clear 81 27.2 25 -3.9 13 13 SSW 23 37 29.78 1008 10 16.0934 0 0

Powered by AerisWeather